Погода в Алькала-де-Энаресе

Испания     40°29′25″N   3°23′03″W
темп.,
°C
ветер,
м/с
пор.,
м/с
влажн.,
%
обл.,
%
осадки,
мм/ч
давл.,
гПа
погр.,
м
23 октября, сб
сб2323:00+13всв611570 0.0 1022401
02:00+11св49610 0.0 1022283
05:00+9св36640 0.0 1022162
08:00+8св45620 0.0 1023127
11:00+12всв23480 0.0 1024292
14:00+16з01320 0.0 1022781
17:00+18юз11250 0.0 1020942
20:00+15ююз22280 0.0 102190
24 октября, вс
вс2423:00+14юз1137100 0.0 102236
02:00+13всв114198 0.0 102215
05:00+11св22425 0.0 102247
08:00+10св224838 0.0 102348
11:00+13всв11400 0.0 1024224
14:00+18зюз22310 0.0 1023778
17:00+19юз22270 0.0 1021990
20:00+17ю23330 0.0 102178
25 октября, пн
пн2523:00+15юв11400 0.0 102211
02:00+13св22420 0.0 102229
05:00+12св224597 0.0 102255
08:00+11св2248100 0.0 102258
11:00+14св1140100 0.0 1023202
14:00+18зсз1132100 0.0 1022616
17:00+19зюз1128100 0.0 1019832
20:00+17ююв013499 0.0 102013
26 октября, вт
вт2623:00+15ссв223617 0.0 102113
02:00+13св35430 0.0 102287
05:00+11св35490 0.0 1022108
08:00+10св35490 0.0 1022105
11:00+14св33380 0.0 1023267
14:00+18юв01290 0.0 1022730
17:00+20юз01265 0.0 1020937
20:00+17ююз113399 0.0 102012
27 октября, ср
ср2723:00+16ссв223341 0.0 102114
02:00+13всв22415 0.0 102258
05:00+12ссв1146100 0.0 102120
08:00+11св11536 0.0 102229
11:00+14св11445 0.0 1023207
14:00+18зюз113136 0.0 1021606
17:00+20юз22286 0.0 1018807
20:00+17ююв22375 0.0 101928